This is the latest recevied weather packets stored in our database for station/object CA3DPI. If no packets are shown the sender has not sent any weather packets the latest 10 day(s).
| Time | Temp. | Humidity | Pressure | Rain* | Wind** | Luminosity | Snow |
|---|---|---|---|---|---|---|---|
| 1777768689 | 20° C | 42% | 1019.5 hPa | - | - | - | - |
| 1777768618 | 20° C | 42% | 1019.5 hPa | - | - | - | - |
| 1777768018 | 20° C | 41% | 1019.5 hPa | - | - | - | - |
| 1777767418 | 20.56° C | 42% | 1019.4 hPa | - | - | - | - |
| 1777766875 | 20.56° C | 41% | 1019.5 hPa | - | - | - | - |
| 1777766818 | 20.56° C | 41% | 1019.5 hPa | - | - | - | - |
| 1777766217 | 21.11° C | 42% | 1019.2 hPa | - | - | - | - |
| 1777765617 | 21.11° C | 41% | 1019.3 hPa | - | - | - | - |
| 1777765017 | 21.67° C | 41% | 1019.2 hPa | - | - | - | - |
| 1777764417 | 21.67° C | 39% | 1019 hPa | - | - | - | - |
| 1777763817 | 22.22° C | 39% | 1018.9 hPa | - | - | - | - |
| 1777763217 | 22.78° C | 38% | 1018.8 hPa | - | - | - | - |
| 1777762616 | 22.78° C | 38% | 1018.5 hPa | - | - | - | - |
| 1777762016 | 23.33° C | 37% | 1018.5 hPa | - | - | - | - |
| 1777761416 | 23.89° C | 37% | 1018.4 hPa | - | - | - | - |
| 1777760816 | 24.44° C | 37% | 1018.3 hPa | - | - | - | - |
| 1777760216 | 25.56° C | 36% | 1018 hPa | - | - | - | - |
| 1777759616 | 26.67° C | 36% | 1017.9 hPa | - | - | - | - |
| 1777759015 | 28.33° C | 35% | 1018 hPa | - | - | - | - |
| 1777758415 | 30.56° C | 33% | 1017.9 hPa | - | - | - | - |
| 1777757815 | 32.22° C | 31% | 1017.7 hPa | - | - | - | - |
| 1777757215 | 33.33° C | 32% | 1017.7 hPa | - | - | - | - |
| 1777756615 | 35° C | 32% | 1017.6 hPa | - | - | - | - |
| 1777756068 | 35.56° C | 30% | 1017.7 hPa | - | - | - | - |
| 1777756015 | 35.56° C | 30% | 1017.7 hPa | - | - | - | - |
* Rain since midnight (hover to see other rain measurements)
** Current wind speed in m/s (hover to see current wind gust speed)